Regional Weather Roundup
Issued by NWS

Home | Current Version | Previous Version | Graphics & Text | Print | Product List | Glossary On
Versions: 1 2 3 4 5 6 7 8 9 10 11 12 13 14 15 16 17 18 19 20 21 22 23 24 25 26 27 28 29 30 31 32 33 34 35 36 37 38 39 40 41 42 43 44 45 46 47 48 49 50
000
ASUS43 KOAX 070410
RWRNE

WEATHER ROUNDUP FOR NEBRASKA
NATIONAL WEATHER SERVICE OMAHA NE
1100 PM CDT MON JUL 06 2015

NOTES: SATELLITE DATA IS BEING USED TO AUGMENT CLOUD COVER ABOVE
       12000 FEET.
       "FAIR" INDICATES FEW OR NO CLOUDS BELOW 12,000 FEET WITH NO
       SIGNIFICANT WEATHER AND/OR OBSTRUCTIONS TO VISIBILITY.

  * THESE STATIONS DO NOT REPORT WEATHER SUCH AS RAIN...SNOW OR FOG.

NEZ001>004-019>022-054>056-070500-
NEBRASKA PANHANDLE

CITY           SKY/WX    TMP DP  RH WIND       PRES   REMARKS
SCOTTSBLUFF    CLOUDY    65  58  78 E5        30.25R HAZE
ALLIANCE       CLOUDY    60  55  83 SE6       30.25R
CHADRON        PTCLDY    61  57  87 SE5       30.22R
KIMBALL          N/A    N/A N/A N/A MISG        N/A
SIDNEY         CLOUDY    63  53  70 E8        30.29R HAZE
$$

NEZ057>060-069>072-079>082-070500-
SOUTHWEST NEBRASKA

CITY           SKY/WX    TMP DP  RH WIND       PRES   REMARKS
NORTH PLATTE   MOCLDY    61  55  81 N6        30.20R
IMPERIAL       MOCLDY    63  52  67 NE7       30.22R
LEXINGTON      PTCLDY    60  56  85 N7        30.18R
MCCOOK         PTCLDY    62  55  77 N10       30.17R HAZE
OGALLALA       CLOUDY    67  54  61 E7        30.23R
$$

NEZ005>010-023>029-035>040-094-070500-
NORTH CENTRAL NEBRASKA

CITY           SKY/WX    TMP DP  RH WIND       PRES   REMARKS
VALENTINE      CLEAR     61  55  81 CALM      30.20R
AINSWORTH      CLEAR     63  55  76 CALM      30.20R
BROKEN BOW     PTCLDY    61  56  83 N7        30.17R
O`NEILL        CLEAR     60  56  85 N5        30.17R
ORD            PTCLDY    61  54  77 N8        30.15R
THEDFORD       CLEAR     63  55  75 CALM      30.22R
$$

NEZ041-046>049-061>064-073>077-083>087-070500-
SOUTH CENTRAL NEBRASKA

CITY           SKY/WX    TMP DP  RH WIND       PRES   REMARKS
GRAND ISLAND   CLEAR     63  56  78 N8        30.14R HAZE
AURORA         CLEAR     65  60  85 N9        30.12R HAZE
HASTINGS       CLEAR     65  56  72 N12       30.13R HAZE
HEBRON         PTCLDY    68  59  73 N8        30.08R HAZE
HOLDREGE       PTCLDY    60  54  79 N7        30.15R
KEARNEY *      CLEAR     63  54  72 N9        30.15R
YORK           PTCLDY    64  61  88 N6        30.11R FOG
$$

NEZ011>018-030>034-042>045-070500-
NORTHEAST NEBRASKA

CITY           SKY/WX    TMP DP  RH WIND       PRES   REMARKS
NORFOLK        CLEAR     64  58  80 N8        30.11R HAZE
ALBION         PTCLDY    63  55  75 N6        30.13R
BLAIR          MOCLDY    67  58  72 N13G23    30.06R HAZE
FREMONT        PTCLDY    68  57  68 N5        30.08R HAZE
TEKAMAH        PTCLDY    67  57  70 N15       30.06R
WAYNE          CLEAR     60  58  94 N3        30.11R FOG
$$

NEZ050>053-065>068-078-088>093-070500-
SOUTHEAST NEBRASKA

CITY           SKY/WX    TMP DP  RH WIND       PRES   REMARKS
LINCOLN        CLOUDY    67  60  78 N10       30.07R HAZE
OMAHA EPPLEY   CLOUDY    69  61  75 N14       30.04R HAZE
BEATRICE       PTCLDY    68  62  79 N10       30.05R HAZE
FALLS CITY     CLOUDY    69  63  81 N8        29.99R HAZE
NEBRASKA CITY  CLOUDY    68  57  66 N10       30.03R HAZE
PLATTSMOUTH    MOCLDY    66  60  80 N6        30.04R HAZE
$$

NEZ044-045-051>053-067-070500-
OMAHA AREA

CITY           SKY/WX    TMP DP  RH WIND       PRES   REMARKS
OMAHA EPPLEY   CLOUDY    69  61  75 N14       30.04R HAZE
BLAIR          MOCLDY    67  58  72 N13G23    30.06R HAZE
FREMONT        PTCLDY    68  57  68 N5        30.08R HAZE
MILLARD        MOCLDY    71  61  71 N5        30.05R HAZE
OFFUTT AFB     CLEAR     69  62  79 N8        30.03R SMOKE
PLATTSMOUTH    MOCLDY    66  60  80 N6        30.04R HAZE
WAHOO          CLOUDY    67  59  75 N12       30.07R HAZE
$$


USA.gov is the U.S. government's official web portal to all federal, state and local government web resources and services.